Location: Newark
(12.4436°N, 0.6167°W)
Time: 03:20:55
(UTC+00:00)

deb Explorer IX - Pass Details

Date: 15 December 2019
Orbit: 548 x 1101 km, 38.8° (Epoch: 25 January)

Event Time Altitude Azimuth Distance (km) Brightness Sun altitude
Rises 10:50:31 0° 210° (SSW) 2,695 ? 50.7°
Reaches altitude 10° 10:52:56 10° 198° (SSW) 1,812 ? 51.0°
Maximum altitude 10:56:30 28° 137° (SE) 1,065 ? 51.3°
Drops below altitude 10° 11:00:16 10° 77° (ENE) 1,931 ? 51.6°
Sets 11:02:56 0° 66° (ENE) 2,909 ? 51.9°
